Home > Weather > Backnang > Past weeks

Flag for Germany Past Weather in Backnang, Baden-Württemberg, Germany — Yesterday and Last 2 Weeks

Now
82 °F

Passing clouds.


Feels Like: 85 °F
Forecast: 65 / 90 °F
Wind: 3 mph from East

Location: Stuttgart-Echterdingen

Current Time: Aug 27, 2016 at 12:09:24 PM

Latest Report: Aug 27, 2016 at 11:20 AM


Visibility: N/A

Pressure: 30.09 "Hg

Humidity: 58%

Dew Point: 66 °F

Location of BacknangLocation

Past Weather in Backnang — Graph

°F

Backnang Temperature Yesterday

Maximum temperature yesterday: 90 °F (at 2:50 PM)
Minimum temperature yesterday: 61 °F (at 5:20 AM)
Average temperature yesterday: 76 °F

High & Low Weather Summary for the Past Weeks

 TemperatureHumidityPressure
High90 °F (Aug 26, 2:50 PM)100% (Aug 13, 12:20 AM)30.42 "Hg (Aug 13, 12:20 AM)
Low52 °F (Aug 13, 5:50 AM)36% (Aug 26, 3:20 PM)29.83 "Hg (Aug 18, 5:20 AM)
Average68 °F70%30.12 "Hg
* Reported Aug 12 10:20 AM — Aug 27 10:50 AM, Backnang, Weather by CustomWeather, © 2016

Note: Actual official high and low records may vary slightly from our data, if they occured in-between our weather recording intervals... More about our weather records

Advertising

Backnang Weather History for the Previous 24 Hours

Scroll right to see more
 ConditionsComfort  
Time TempWeatherWind HumidityBarometerVisibility
10:50 AM
Sat, Aug 27
81 °FPassing clouds.3 mph62%30.12 "HgN/A
10:20 AM79 °FPassing clouds.3 mph65%30.12 "HgN/A
9:50 AM75 °FSunny.2 mph74%30.12 "Hg10 mi
9:20 AM73 °FSunny.2 mph74%30.09 "Hg10 mi
8:50 AM70 °FSunny.1 mph78%30.09 "Hg10 mi
8:20 AM66 °FSunny.1 mph88%30.09 "Hg10 mi
7:50 AM64 °FSunny.1 mph88%30.09 "Hg10 mi
7:20 AM61 °FFog.1 mph100%30.09 "HgN/A
6:50 AM61 °FFog.1 mph100%30.09 "HgN/A
6:20 AM61 °FFog.1 mph100%30.09 "HgN/A
5:50 AM61 °FClear.1 mph100%30.09 "Hg10 mi
5:20 AM63 °FClear.1 mph94%30.09 "Hg10 mi
4:50 AM63 °FClear.1 mph94%30.09 "Hg10 mi
4:20 AM63 °FClear.2 mph94%30.09 "Hg10 mi
3:50 AM64 °FClear.1 mph88%30.09 "Hg10 mi
3:20 AM64 °FClear.No wind88%30.09 "Hg10 mi
2:50 AM66 °FClear.1 mph83%30.09 "Hg10 mi
2:20 AM66 °FClear.No wind83%30.09 "Hg10 mi
1:50 AM68 °FClear.2 mph78%30.09 "Hg10 mi
1:20 AM68 °FClear.1 mph83%30.09 "Hg10 mi
12:50 AM68 °FClear.2 mph83%30.09 "Hg10 mi
12:20 AM70 °FPassing clouds.3 mph78%30.09 "HgN/A
11:50 PM
Fri, Aug 26
70 °FClear.2 mph78%30.09 "Hg10 mi
11:20 PM73 °FClear.2 mph69%30.09 "Hg10 mi
10:50 PM75 °FClear.3 mph65%30.09 "Hg10 mi
10:20 PM77 °FClear.2 mph61%30.09 "Hg10 mi
9:50 PM77 °FClear.2 mph61%30.09 "Hg10 mi
9:20 PM81 °FPassing clouds.5 mph58%30.09 "HgN/A
8:50 PM84 °FPassing clouds.5 mph48%30.09 "HgN/A
8:20 PM84 °FPassing clouds.5 mph45%30.07 "HgN/A
7:50 PM86 °FSunny.5 mph43%30.07 "Hg10 mi
7:20 PM88 °FSunny.6 mph43%30.07 "Hg10 mi
6:50 PM90 °FPassing clouds.5 mph38%30.07 "HgN/A
6:20 PM90 °FPassing clouds.5 mph38%30.07 "HgN/A
5:50 PM90 °FPassing clouds.6 mph36%30.07 "HgN/A
5:20 PM90 °FPassing clouds.6 mph38%30.07 "HgN/A
4:50 PM90 °FPassing clouds.6 mph36%30.07 "HgN/A
4:20 PM90 °FPassing clouds.7 mph36%30.07 "HgN/A
3:50 PM90 °FSunny.6 mph36%30.07 "Hg10 mi
3:20 PM90 °FSunny.5 mph36%30.07 "Hg10 mi
2:50 PM90 °FSunny.5 mph41%30.07 "Hg10 mi
2:20 PM88 °FPassing clouds.5 mph46%30.09 "HgN/A
1:50 PM88 °FPassing clouds.5 mph46%30.09 "HgN/A
1:20 PM88 °FPassing clouds.6 mph49%30.09 "HgN/A
12:50 PM86 °FSunny.1 mph49%30.09 "Hg10 mi
12:20 PM84 °FSunny.1 mph55%30.09 "Hg10 mi
Weather by CustomWeather, © 2016

See weather overviewHow to use our weather pages